Regional Weather Roundup
Issued by NWS

Home | Current Version | Previous Version | Text Only | Print | Product List | Glossary Off
Versions: 1 2 3 4 5 6 7 8 9 10 11 12 13 14 15 16 17 18 19 20 21 22 23 24 25 26 27 28 29 30 31 32 33 34 35 36 37 38 39 40 41 42 43 44 45 46 47 48 49 50

000
ASUS43 KLSX 300510
RWRMO

WEATHER SUMMARY FOR MISSOURI
NATIONAL WEATHER SERVICE SPRINGFIELD MO
1200 AM CDT FRI SEP 30 2016

NOTE: "FAIR" INDICATES FEW OR NO CLOUDS BELOW 12,000 FEET WITH NO
       SIGNIFICANT WEATHER AND/OR OBSTRUCTIONS TO VISIBILITY.
       CURRENT SKY AND/OR WEATHER CONDITIONS ARE NOT AVAILABLE FOR
       CHILLICOTHE AND FARMINGTON.

MOZ001>031-035>038-043-044-053-054-300600-
...NORTHERN AND WESTERN MISSOURI...

CITY           SKY/WX    TMP DP  RH WIND       PRES   REMARKS
KANSAS CTY INT PTCLDY    54  47  77 NW7       30.29F
KANSAS C DTWN  CLEAR     59  50  72 W3        30.29S
LEE`S SUMMIT   CLEAR     55  50  83 CALM      30.28F
ST JOSEPH      CLEAR     50  48  93 N3        30.31S
CHILLICOTHE      N/A     59  50  72 N5        30.28F
KIRKSVILLE     CLEAR     56  47  71 N7        30.26F

$$
MOZ066>068-077>081-088>096-101>105-300600-
...SOUTHWEST MISSOURI...

CITY           SKY/WX    TMP DP  RH WIND       PRES   REMARKS
SPRINGFIELD    CLEAR     55  47  74 NW7       30.24F
JOPLIN         CLEAR     52  48  86 NW3       30.28F
BRANSON        CLEAR     59  46  63 NW6       30.24F

$$
MOZ032>034-039>042-045>050-055>058-069>072-300600-
...CENTRAL MISSOURI...

CITY           SKY/WX    TMP DP  RH WIND       PRES   REMARKS
COLUMBIA       CLOUDY    63  52  67 N6        30.22S
JEFFERSON CITY CLOUDY    65  52  62 CALM      30.20F
ROLLA          CLOUDY    61  54  77 NW3       30.19F
SEDALIA        CLEAR     58  50  75 NW8       30.25F
WHITEMAN AFB   CLEAR     56  52  88 NW7       30.24F
OSAGE BEACH    CLEAR     60  51  72 N5        30.23R

$$
MOZ051-052-059>065-300600-
...EAST CENTRAL MISSOURI...

CITY           SKY/WX    TMP DP  RH WIND       PRES   REMARKS
ST LOUIS INTL  CLOUDY    63  57  81 N13       30.17F
SPIRIT OF STL  CLOUDY    63  58  83 N7        30.17S
ST CHARLES     CLOUDY    62  59  90 N9        30.17S

$$
MOZ072>076-082>087-097>100-106>115-300600-
...SOUTH CENTRAL AND SOUTHEAST MISSOURI...

CITY           SKY/WX    TMP DP  RH WIND       PRES   REMARKS
CAPE GIRARDEAU CLOUDY    59  57  93 CALM      30.13S
FARMINGTON     CLOUDY    60  57  89 N5        30.17S
POPLAR BLUFF   CLOUDY    62  58  86 NW6       30.13F
WEST PLAINS    CLEAR     59  50  72 NW7       30.20F

$$



USA.gov is the U.S. government's official web portal to all federal, state and local government web resources and services.